Hourly Data Report for October 13, 2014

All times are specified in Local Standard Time (LST). Add 1 hour to adjust for Daylight Saving Time where and when it is observed.

CLYDE RIVER A
NUNAVUT

70°29'09.000" N
68°31'01.000" W
26.50 m
2400804
71090
YCY

Download Data

Hourly Data (October 2014)
Hourly Data Report for October 13, 2014
Temp Definition
°C
Dew Point Temp Definition
°C
Rel Hum Definition
%
Wind Dir Definition
10's deg

Wind Spd Definition
km/h
Visibility Definition
km
Stn Press Definition
kPa
Hmdx Definition


Wind Chill Definition


Weather Definition


TIME
00:00 Legend Double Dagger -3.1 -3.8 95 34 5 16.1 100.86   -5 LegendNANA
01:00 Legend Double Dagger -2.4 -3.5 92 33 5 16.1 100.89   -4 LegendNANA
02:00 Legend Double Dagger -1.8 -2.6 94   0 16.1 100.94     LegendNANA
03:00 Legend Double Dagger -2.5 -3.7 92 4 5 16.1 100.94   -4 LegendNANA
04:00 Legend Double Dagger -3.2 -3.8 96   0 16.1 100.98     LegendNANA
05:00 Legend Double Dagger -5.2 -6.0 94 35 5 16.1 101.00   -7 LegendNANA
06:00 Legend Double Dagger -5.0 -6.0 93 34 5 16.1 101.03   -7 LegendNANA
07:00 Legend Double Dagger -3.0 -3.9 94 1 5 16.1 101.05   -5 LegendNANA
08:00 Legend Double Dagger -1.2 -2.8 89 LegendMM 5 16.1 101.07   -3 LegendNANA
09:00 Legend Double Dagger -1.0 -1.8 94 25 4 11.3 101.05   -2 Snow
10:00 Legend Double Dagger -1.2 -1.9 95 33 5 9.7 101.05   -3 Snow
11:00 Legend Double Dagger -0.9 -1.3 97 2 9 2.8 101.01   -4 Snow
12:00 Legend Double Dagger 0.6 0.0 96 11 18 9.7 101.00     Fog
13:00 Legend Double Dagger 0.6 -0.1 95 11 18 12.9 101.01     LegendNANA
14:00 Legend Double Dagger 0.6 0.0 96 9 21 12.9 101.01     LegendNANA
15:00 Legend Double Dagger 0.4 -0.2 96 10 18 12.9 101.02     Rain
16:00 Legend Double Dagger 0.5 -0.1 96 10 17 12.9 101.01     Rain
17:00 Legend Double Dagger 0.2 -0.2 97 9 17 12.9 101.01     Rain
18:00 Legend Double Dagger -0.4 -0.8 97 8 13 14.5 101.00   -5 LegendNANA
19:00 Legend Double Dagger -0.1 -0.7 96 9 18 16.1 100.98   -5 Rain
20:00 Legend Double Dagger -0.1 -0.5 97 9 21 11.3 100.97   -6 Rain
21:00 Legend Double Dagger -0.6 -1.0 97 13 17 8.1 100.95   -6 Snow
22:00 Legend Double Dagger -0.8 -2.1 91   0 16.1 100.91     LegendNANA
23:00 Legend Double Dagger -2.1 -2.9 94 35 5 16.1 100.89   -4 LegendNANA

Notes on Data Quality.

Legend

  • E = Estimated
  • M = Missing
  • NA = Not Available
  • ‡ = Partner data that is not subject to review by the National Climate Archives
Date modified: